Regional Weather Roundup
Issued by NWS

Home | Current Version | Previous Version | Text Only | Print | Product List | Glossary Off
Versions: 1 2 3 4 5 6 7 8 9 10 11 12 13 14 15 16 17 18 19 20 21 22 23 24 25 26 27 28 29 30 31 32 33 34 35 36 37 38 39 40 41 42 43 44 45 46

000
ASUS45 KBOU 201310
RWRCO

WEATHER ROUNDUP FOR COLORADO
NATIONAL WEATHER SERVICE PUEBLO CO
600 AM MST TUE FEB 20 2018

NOTE: "FAIR" INDICATES FEW OR NO CLOUDS BELOW 12000 FEET WITH NO
SIGNIFICANT WEATHER AND/OR OBSTRUCTIONS TO VISIBILITY.

COZ001>005-013-030-031-201400-
...NORTHWEST COLORADO...

CITY           SKY/WX    TMP DP  RH WIND       PRES   REMARKS
CRAIG          CLOUDY     1  -5  75 CALM      29.86R HAZE
HAYDEN         LGT SNOW   1  -2  85 NE5       29.84R FOG     WCI  -8
MEEKER         FLURRIES   4   1  88 CALM      29.82R
RABBIT EARS PA NOT AVBL
STEAMBOAT SPGS CLOUDY     0  -4  82 CALM      29.80R
WALDEN         FAIR     -13 -20  70 CALM      29.70R
$$

COZ006>008-011-201400-
...WEST CENTRAL VALLEYS...

CITY           SKY/WX    TMP DP  RH WIND       PRES   REMARKS
GRAND JUNCTION MOCLDY    17  17 100 NW3       29.87R
MONTROSE       LGT SNOW  17  15  92 NW3       29.87R FOG
EAGLE          CLOUDY    14   6  70 W3        29.80R
RIFLE          CLOUDY    13  10  88 CALM      29.85R FOG
DELTA          NOT AVBL
NUCLA          FAIR      19  14  79 SW9       29.87R WCI   9
$$

COZ017>023-064>068-201400-
...SOUTHWEST COLORADO...

CITY           SKY/WX    TMP DP  RH WIND       PRES   REMARKS
DURANGO        CLEAR      9   8  96 E5        29.85R WCI   1
CORTEZ         CLEAR      7   3  84 NE7       29.87R WCI  -5
PAGOSA SPRINGS CLOUDY    17  12  80 SW8       29.82R WCI   7
TELLURIDE      CLOUDY    10   1  67 CALM      29.74R
WOLF CREEK PAS CLOUDY    -2  -4  92 S24G39    29.62R WCI -27
$$

COZ009-010-012-014-032>034-037-058>063-201400-
...CENTRAL COLORADO...

CITY           SKY/WX    TMP DP  RH WIND       PRES   REMARKS
ASPEN          LGT SNOW  10   7  87 CALM      29.71R FOG
BUENA VISTA    FAIR      12  -7  43 CALM      29.67R
COPPER MTN     LGT SNOW   1  -6  71 W14       29.49R WCI -17
BERTHOUD PASS  LGT SNOW  -8 -18  59 MISG      29.44R
COTTONWOOD PAS CLEAR     14  -4  44 W9        29.59S WCI   2
GUNNISON       PTCLDY     5  -1  76 SE3       29.75R
KREMMLING      CLOUDY    14   3  62 CALM      29.74R
LEADVILLE      LGT SNOW   4  -1  80 N3        29.58R
MONARCH PASS   CLEAR      0  -6  78 W30G41    29.61S WCI -26
SALIDA         FAIR      18   1  47 SW3       29.78R
SUNLIGHT       LGT SNOW  -4  -8  84 W7        29.62R WCI -18
WILKERSON PASS CLEAR    N/A N/A N/A SW14G29   29.52S
$$

COZ069>075-201400-
...SAN LUIS VALLEY/SANGRE DE CRISTO MOUNTAINS...

CITY           SKY/WX    TMP DP  RH WIND       PRES   REMARKS
ALAMOSA        CLEAR     14   7  73 S13       29.76R WCI   0
DEL NORTE      CLOUDY    16   2  53 SW15G22   29.72S WCI   2
LA VETA PASS   CLOUDY     9   1  72 S33G53    29.69R WCI -15
SAGUACHE       MOCLDY    10   3  72 N5        29.72R WCI   2
$$

COZ035-036-038>040-201400-
...NORTHERN COLORADO FRONT RANGE...

CITY           SKY/WX    TMP DP  RH WIND       PRES   REMARKS
DENVER INTL AP FLURRIES  -1  -7  75 E6        29.86R WCI -13
DMNS CITY PARK NOT AVBL
AURORA         CLOUDY    -5  -9  84 S5        29.84R WCI -16
FRONT RANGE AP CLOUDY    -3  -7  82 CALM      29.86R
ERIE MUNI ARPT FAIR      -4  -8  85 CALM      29.96R
BOULDER MUN AP CLOUDY     3  -2  78 CALM      29.87R
CENTENNIAL     CLOUDY    -2  -6  83 SE6       29.81R WCI -14
BROOMFIELD     CLOUDY     1  -4  78 SW3       29.85R
LOVELAND       PTCLDY    -6 -10  83 S8        29.91R WCI -21
LONGMONT       FAIR      -5 -10  79 CALM      29.93R
$$

COZ041-046-047-076>085-087-088-201400-
...PIKES PEAK/PALMER DIVIDE AND SOUTHERN FOOTHILLS...

CITY           SKY/WX    TMP DP  RH WIND       PRES   REMARKS
COLO. SPRINGS  CLOUDY     5   3  91 S8        29.77R FOG     WCI  -8
A. F. ACADEMY  MOCLDY     0  -6  75 NW6       29.74R WCI -12
SCHRIEVER AFB  NOT AVBL
CHEYENNE MTN   NOT AVBL
ELLICOTT         N/A    N/A N/A N/A CALM        N/A
FALCON         LGT SNOW   4   0  84 MISG      29.73R
FORT CARSON    NOT AVBL
LIMON          CLOUDY    -3  -6  87 N6        29.85R WCI -15
MONUMENT HILL  PTCLDY   -11 -15  84 CALM      29.72R
CANON CITY     LGT SNOW  12   9  85 NE6       29.81R WCI   3
WALSENBURG     CLOUDY    10   9  92 NE10G18   29.77R WCI  -3
TRINIDAD       CLEAR      9   6  88 E5        29.79R WCI   1
$$

COZ042>045-048>051-090-091-201400-
...NORTHEAST COLORADO...

CITY           SKY/WX    TMP DP  RH WIND       PRES   REMARKS
GREELEY ARPT   PTCLDY   -12 -17  78 N3        29.94R
AKRON          CLEAR     -7 -10  87 NW8       29.91R WCI -23
BURLINGTON     CLEAR      0  -6  76 NW14G24   29.94R WCI -19
WRAY           FAIR      -2  -8  78 NW5       30.00R WCI -12
YUMA           NOT AVBL
STERLING       FAIR      -6  -9  84 NW8       29.96R WCI -21
HOLYOKE        FAIR       3  -2  78 NW8       29.98R WCI -10
FORT MORGAN    PTSUNNY   -5 -11  77 NW7       29.94R WCI -19
$$

COZ086-089-092>099-201400-
...SOUTHEAST COLORADO...

CITY           SKY/WX    TMP DP  RH WIND       PRES   REMARKS
PUEBLO         CLOUDY    10   5  80 E8        29.90R WCI  -2
LA JUNTA       MOCLDY     6   0  76 NE8       29.94R WCI  -7
LAMAR          CLOUDY    10   2  69 N9        29.97R WCI  -3
SPRINGFIELD      N/A      7   5  91 N7        29.89R WCI  -5
$$





USA.gov is the U.S. government's official web portal to all federal, state and local government web resources and services.